Location: Diebersbach
(48.5163°N, 8.0558°E)
Time: 18:10:39
(UTC+00:00)

Cosmos 1980 Rocket - Visible Passes

Search period start: 21 October 2021 00:00
Search period end: 31 October 2021 00:00
Orbit: 827 x 851 km, 71.0° (Epoch: 21 October)

Date Brightness Start Highest point End Pass type
(mag) Time Alt. Az. Time Alt. Az. Time Alt. Az.
21 Oct 2.7 17:43:24 10° SW 17:49:01 63° WNW 17:54:42 10° NNE visible
21 Oct 4.8 19:30:43 10° WNW 19:34:14 16° NW 19:37:47 10° N visible
22 Oct 2.6 17:27:39 10° SW 17:33:17 66° WNW 17:38:59 10° NNE visible
22 Oct 4.7 19:14:48 10° WNW 19:18:26 17° NW 19:22:07 10° N visible
23 Oct 2.6 17:11:53 10° SW 17:17:32 70° WNW 17:23:16 10° NNE visible
23 Oct 4.7 18:58:52 10° W 19:02:39 18° NW 19:06:26 10° N visible
24 Oct 2.5 16:56:08 10° SW 17:01:48 74° WNW 17:07:32 10° NNE visible
24 Oct 4.6 18:42:58 10° W 18:46:51 18° NW 18:50:46 10° N visible
25 Oct 4.5 18:27:03 10° W 18:31:04 19° NW 18:35:05 10° N visible
26 Oct 4.5 18:11:10 10° W 18:15:17 20° NW 18:19:25 10° N visible
27 Oct 4.4 17:55:17 10° W 17:59:29 21° NW 18:03:44 10° N visible
28 Oct 4.4 17:39:24 10° W 17:43:42 22° NW 17:48:03 10° N visible
29 Oct 4.3 17:23:31 10° W 17:27:56 22° NW 17:32:22 10° N visible
30 Oct 4.2 17:07:39 10° W 17:12:09 23° NW 17:16:41 10° N visible
